STARLINK-32181, 60349

Orbit data source: Space-Track

STARLINK-32181, 60349 is a payload satellite owned by SpaceX/Seattle (US) in LEO that was launched on Fri, 02 Aug 2024 UTC via an FALCON 9 launch vehicle from the Air Force Eastern Test Range (AFETR). Payload-class satellites include a variety of spacecraft equipped with specific instruments for various scientific and technological missions. These include communications satellites like Starlink; space stations such as the ISS; scientific satellites like the Hubble; Earth observation satellites from companies like Planet Labs, Umbra, and HawkEye 360; GPS; miniature CubeSats for education and research; and military/defense satellites.

Loading next visibility...
Identifier
60349, 2024-136W
Orbit
LEO
Country
Flag of USUS
Related business
Manufacturer
SpaceX/Seattle
Mission
Operational Commercial Communications
Bus & Motor
STARLINK V2M, Unknown motor
Mass
730 kg wet, ~700 kg dry
Launch date (UTC)
2024-08-02 (2 years ago)
Launch vehicle
FALCON 9
Launch site
Air Force Eastern Test Range (AFETR)
Object type
Payload
Rocket body
Debris
Shape & HBR
Box + 2 Pan, 17.7 m
Radar Cross Section
33.884 m², Large (>1 m²)

Expand to show TLE details & history
Last TLE update: 1 day ago

TLE from 1 day ago
0 STARLINK-32181
1 60349U 24136W   26170.78581328  .00001241  00000-0  47853-4 0  9995
2 60349  53.1603 319.4736 0000884 101.2280 258.8822 15.34395889105320
Epoch: 2026-06-19T18:51Z
TLE epoch observation values (Epoch: 2026-06-19T18:51:34.267Z)
Latitude
-0.00002°
Longitude
128.57101°
Altitude
463.733 km
Speed
7.636 km/s
True Right ascension
21h 17m 53s
True Declination
0° 00' 00"
Sunlit
Object was in full shadow at epoch
Visualization orbit readout
Latitude
Unknown
Longitude
Unknown
Altitude
Unknown
Speed
Unknown
Apparent Right ascension
Unknown
Apparent Declination
Unknown
Sunlit
N/A
Visualization observer readout
Local Sidereal Time
07:22:59
Azimuth
Unknown
Elevation
Unknown
Doppler factor
Unknown
Orbital elements
Apogee altitude
463.577 km
Perigee altitude
462.368 km
Semi-major axis
6,841.109 km
Eccentricity
0.00009
Inclination
53.1603°
RAAN
319.4736°
Arg. of periapsis
101.228°
True anomaly
258.87226°
Mean anomaly
258.8822°
Eccentric anomaly
258.87723°
Mean motion
3.83578 °/min
Orbital period
93.85 mins
BSTAR
0.000047853
Loading maneuver chart data...
Computing Atmospheric mass density...
Loading historical data...
Loading historical data...
Loading historical data...
Loading historical data...
Loading historical data...
Loading historical data...
Loading historical data...

Documentation

Showing up to 5 results
|